Welcome to the New NWS' Forecast!
Most changes are behind the scenes, but click here for differences you might notice.
Latest weather observations around

Canton, Cherokee County Airport (KCNI)

Using English Units (Switch to International System of Units)
Date/ Time (EST) Wind (mph) Vis. (mi) Weather Sky Cond. Temp (°F) Rel. Humidity Wind Chill (°F) Heat Index (°F) Pressure Precip. (in)
Air Dwpt 6 hour Altimeter (inHg) Sea level (inHg) 1 hr 3 hr 6 hr
Max Min
Jan 21 10:55 Calm 10 Clear CLR 61 43     51%     30.29        
Jan 21 10:35 Calm 10 Clear CLR 55 41     58%     30.29        
Jan 21 10:15 Calm 10 Clear CLR 52 41     67%     30.29        
Jan 21 09:55 Calm 10 Clear CLR 48 41     76%     30.28        
Jan 21 09:35 Calm 10 Clear CLR 46 41     81%     30.28        
Jan 21 09:15 Calm 10 Clear CLR 43 39     87%     30.27        
Jan 21 08:55 Calm 10 Clear CLR 37 36     93%     30.27        
Jan 21 08:35 Calm 10 Clear CLR 41 41     100%     30.26        
Jan 21 08:15 Calm 10 Clear CLR 37 37     100%     30.26        
Jan 21 07:55 Calm 10 Clear CLR 36 34     93%     30.26        
Jan 21 07:35 N 3 10 Clear CLR 34 34     100% 31   30.26        
Jan 21 07:15 Calm 10 Clear CLR 36 34     93%     30.26        
Jan 21 06:55 N 3 10 Clear CLR 36 34     93% 33   30.26        
Jan 21 06:35 NNW 3 10 Clear CLR 34 32     93% 31   30.25        
Jan 21 06:15 Calm 10 Clear CLR 37 36     93%     30.25        
Jan 21 05:55 Calm 10 Clear CLR 36 36     100%     30.25        
Jan 21 05:35 N 3 10 Clear CLR 36 36     100% 33   30.25        
Jan 21 05:15 NW 3 10 Clear CLR 34 32     93% 31   30.24        
Jan 21 04:55 Calm 10 Clear CLR 34 32     93%     30.23        
Notice The following observation data may not be complete
Jan 21 04:35   10 Clear CLR          %              
Jan 21 04:15 Calm 10 Clear CLR 37 36     93%     30.24        
Jan 21 03:55 Calm 10 Clear CLR 37 37     100%     30.25        
Jan 21 03:35 Calm 10 Clear CLR 37 34     87%     30.25        
Jan 21 03:15 Calm 10 Clear CLR 36 34     93%     30.25        
Jan 21 02:55 Calm 10 Clear CLR 41 36     81%     30.25        
Jan 21 02:35 Calm 10 Clear CLR 41 37     87%     30.25        
Jan 21 02:15 Calm 10 Clear CLR 37 34     87%     30.24        
Jan 21 01:55 Calm 10 Clear CLR 43 37     81%     30.24        
Jan 21 01:35 Calm 10 Clear CLR 43 37     81%     30.24        
Jan 21 01:15 Calm 10 Clear CLR 43 36     76%     30.25        
Jan 21 00:55 Calm 10 Clear CLR 41 36     81%     30.25        
Jan 21 00:35 NW 3 10 Clear CLR 41 36     81% 39   30.25        
Jan 21 00:15 NW 3 10 Clear CLR 41 36     81% 39   30.24        
Jan 20 23:55 NW 3 10 Clear CLR 41 36     81% 39   30.24        
Jan 20 23:35 Calm 10 Clear CLR 43 36     76%     30.25        
Jan 20 23:15 Calm 10 Clear CLR 45 36     70%     30.25        
Jan 20 22:55 Calm 10 Clear CLR 43 36     76%     30.26        
Jan 20 22:35 Calm 10 Clear CLR 43 36     76%     30.26        
Jan 20 22:15 Calm 10 Clear CLR 43 36     76%     30.26        
Jan 20 21:55 Calm 10 Clear CLR 45 36     70%     30.27        
Jan 20 21:35 NNE 3 10 Clear CLR 43 36     76% 41   30.26        
Jan 20 21:15 Calm 10 Clear CLR 46 37     71%     30.26        
Jan 20 20:55 Calm 10 Clear CLR 48 36     62%     30.26        
Jan 20 20:35 Calm 10 Clear CLR 50 37     62%     30.26        
Jan 20 20:15 Calm 10 Clear CLR 52 37     58%     30.26        
Jan 20 19:55 Calm 10 Clear CLR 50 37     62%     30.26        
Notice The following observation data may not be complete
Jan 20 19:35   10 Clear CLR          %              
Jan 20 19:15 Calm 10 Clear CLR 54 37     54%     30.25        
Jan 20 18:55 Calm 10 Clear CLR 54 37     54%     30.24        
Jan 20 18:35 Calm 10 Clear CLR 54 37     54%     30.23        
Jan 20 18:15 Calm 10 Clear CLR 55 37     51%     30.23        
Jan 20 17:55 Calm 10 Clear CLR 55 37     51%     30.22        
Jan 20 17:35 WNW 5 10 Clear CLR 57 37     47%     30.22        
Jan 20 17:15 WNW 6 10 Clear CLR 59 37     45%     30.22        
Jan 20 16:55 W 6 10 Clear CLR 59 37     45%     30.22        
Jan 20 16:35 Calm 10 Clear CLR 61 37     42%     30.22        
Jan 20 16:15 NW 5 10 Clear CLR 61 37     42%     30.21        
Jan 20 15:55 WNW 7 10 Clear CLR 61 37     42%     30.21        
Jan 20 15:35 WNW 7 10 Clear CLR 61 37     42%     30.21        
Jan 20 15:15 W 7 10 Clear CLR 59 36     41%     30.21        
Jan 20 14:55 W 7 10 Clear CLR 59 36     41%     30.21        
Jan 20 14:35 WNW 10 10 Partly Cloudy SCT046 59 36     41%     30.21        
Jan 20 14:15 WNW 8 10 Partly Cloudy SCT046 59 36     41%     30.22        
Jan 20 13:55 WNW 7 10 Partly Cloudy SCT046 59 36     41%     30.23        
Notice The following observation data may not be complete
Jan 20 13:35   10 Clear CLR          %              
Jan 20 13:15 W 11 10 Mostly Cloudy BKN043 55 34     44%     30.23        
Jan 20 12:55 W 11 10 Cloudy OVC043 57 36     44%     30.25        
Jan 20 12:35 WNW 7 10 Cloudy OVC041 57 36     44%     30.25        
Jan 20 12:15 W 9 10 Cloudy OVC041 55 34     44%     30.26        
Jan 20 11:55 W 6 10 Mostly Cloudy BKN039 54 32     44%     30.27        
Jan 20 11:35 W 9 10 Mostly Cloudy BKN039 54 32     44%     30.28        
Jan 20 11:15 W 9 10 Cloudy OVC039 52 32     47%     30.28        
Jan 20 10:55 WNW 7 10 Cloudy OVC037 50 30     46% 47   30.28        
Notice The following observation data may not be complete
Jan 20 10:35   10 Cloudy OVC035          %              
Jan 20 10:15 WNW 9 10 Cloudy OVC035 48 27     43% 44   30.28        
Jan 20 09:55 W 9 10 Cloudy OVC035 46 23     39% 42   30.27        
Jan 20 09:35 WNW 6 10 Cloudy OVC035 45 23     42% 41   30.27        
Jan 20 09:15 WNW 8 10 Mostly Cloudy BKN033 45 23     42% 40   30.26        
Jan 20 08:55 WNW 7 10 Cloudy OVC033 43 25     49% 39   30.26        
Jan 20 08:35 W 5 10 Cloudy OVC033 43 25     49% 40   30.25        
Jan 20 08:15 WSW 5 10 Cloudy OVC033 36 23     60% 32   30.25        
Notice The following observation data may not be complete
Jan 20 07:55 Calm 10 Cloudy OVC033   21      %     30.24        
Jan 20 07:35 Calm 10 Cloudy OVC033 37 21     52%     30.25        
Jan 20 07:15 Calm 10 Cloudy OVC033 36 21     55%     30.25        
Jan 20 06:55 WNW 3 10 Cloudy OVC033 37 19     48% 35   30.24        
Jan 20 06:35 Calm 10 Cloudy OVC031 37 19     48%     30.25        
Jan 20 05:50 W 3 10 Cloudy OVC031 36 18     48% 33   30.25        
Notice The following observation data may not be complete
Jan 20 05:35 W 3 10 Cloudy OVC031   14      %     30.25        
Notice The following observation data may not be complete
Jan 20 05:15 Calm 10 Cloudy OVC031   14      %     30.25        
Jan 20 04:55 WNW 3 10 Mostly Cloudy BKN031 37 14     38% 35   30.25        
Jan 20 04:35 WNW 6 10 Clear CLR 36 14     41% 31   30.25        
Jan 20 04:15 WNW 6 10 Clear CLR 36 14     41% 31   30.25        
Jan 20 03:55 WNW 5 10 Clear CLR 36 12     38% 32   30.25        
Jan 20 03:35 NW 3 10 Clear CLR 36 12     38% 33   30.25        
Jan 20 03:15 WNW 5 10 Clear CLR 36 12     38% 32   30.25        
Jan 20 02:55 NW 7 10 Clear CLR 32 16     51% 26   30.25        
Jan 20 02:35 WNW 5 10 Clear CLR 32 16     51% 27   30.25        
Jan 20 02:15 Calm 10 Clear CLR 34 12     40%     30.24        
Jan 20 01:55 Calm 10 Clear CLR 32 14     47%     30.23        
Jan 20 01:35 NW 3 10 Clear CLR 30 18     59% 27   30.23        
Jan 20 01:15 Calm 10 Clear CLR 32 16     51%     30.24        
Jan 20 00:55 Calm 10 Clear CLR 32 14     47%     30.24        
Jan 20 00:35 Calm 10 Clear CLR 32 14     47%     30.24        
Jan 20 00:15 Calm 10 Clear CLR 34 14     44%     30.25        
Jan 19 23:55 Calm 10 Clear CLR 32 16     51%     30.25        
Jan 19 23:35 Calm 10 Clear CLR 32 14     47%     30.25        
Jan 19 23:15 Calm 10 Clear CLR 36 12     38%     30.25        
Jan 19 22:55 Calm 10 Clear CLR 36 12     38%     30.25        
Jan 19 22:35 WNW 3 10 Clear CLR 36 12     38% 33   30.25        
Jan 19 22:15 WNW 6 10 Clear CLR 36 12     38% 31   30.24        
Jan 19 21:55 Calm 10 Clear CLR 39 10     30%     30.24        
Jan 19 21:35 W 3 10 Clear CLR 37 12     35% 35   30.23        
Jan 19 21:15 Calm 10 Clear CLR 36 12     38%     30.23        
Jan 19 20:55 Calm 10 Clear CLR 36 12     38%     30.22        
Jan 19 20:35 Calm 10 Clear CLR 41 12     30%     30.22        
Jan 19 20:15 Calm 10 Clear CLR 39 12     33%     30.22        
Jan 19 19:55 Calm 10 Clear CLR 39 12     33%     30.21        
Jan 19 19:35 Calm 10 Clear CLR 41 12     30%     30.21        
Jan 19 19:15 Calm 10 Clear CLR 43 12     28%     30.22        
Jan 19 18:55 Calm 10 Clear CLR 45 12     26%     30.22        
Notice The following observation data may not be complete
Jan 19 18:35   10 Clear CLR          %              
Jan 19 18:15 Calm 10 Clear CLR 46 10     23%     30.22        
Jan 19 17:55 WNW 5 10 Clear CLR 46 10     23% 44   30.23        
Jan 19 17:35 WNW 6 10 Clear CLR 50 9     18% 48   30.22        
Jan 19 17:15 WNW 5 10 Clear CLR 50 9     18% 48   30.22        
Jan 19 16:55 WNW 7 10 Clear CLR 50 9     18% 47   30.23        
Jan 19 16:35 WNW 6 10 Clear CLR 52 9     17%     30.23        
Jan 19 16:15 WNW 7 10 Clear CLR 52 9     17%     30.23        
Jan 19 15:55 WNW 5 10 Clear CLR 52 9     17%     30.23        
Jan 19 15:35 W 8 10 Clear CLR 52 9     17%     30.23        
Jan 19 15:15 W 8 10 Clear CLR 52 10     19%     30.23        
Jan 19 14:55 WNW 7 10 Clear CLR 52 9     17%     30.23        
Jan 19 14:35 W 9 10 Clear CLR 52 9     17%     30.23        
Jan 19 14:15 W 9 10 Clear CLR 50 9     18% 46   30.24        
Jan 19 13:55 W 8 10 Clear CLR 50 9     18% 47   30.25        
Jan 19 13:35 NW 8 10 Clear CLR 50 9     18% 47   30.25        
Jan 19 13:15 WNW 11 10 Clear CLR 48 5     17% 43   30.26        
Jan 19 12:55 WNW 8 10 Clear CLR 48 9     20% 45   30.27        
Jan 19 12:35 W 8 10 Clear CLR 46 10     23% 42   30.28        
Jan 19 12:15 W 7 10 Clear CLR 46 10     23% 43   30.29        
Jan 19 11:55 W 8 10 Clear CLR 45 12     26% 40   30.3        
Jan 19 11:35 WNW 8 10 Clear CLR 45 9     23% 40   30.3        
Jan 19 11:15 W 9 10 Clear CLR 43 10     26% 37   30.31        
Jan 19 10:35 WNW 8 10 Clear CLR 41 9     26% 36   30.31        
Jan 19 10:15 WNW 8 10 Clear CLR 39 10     30% 34   30.31        
Jan 19 09:55 WNW 10 10 Clear CLR 37 10     32% 30   30.3        
Jan 19 09:35 WNW 9 10 Clear CLR 36 10     35% 29   30.3        
Jan 19 09:15 WNW 6 10 Clear CLR 36 10     35% 31   30.3        
Jan 19 08:55 WNW 6 10 Clear CLR 34 10     37% 29   30.3        
Jan 19 08:35 WNW 7 10 Clear CLR 32 12     43% 26   30.29        
Jan 19 08:15 WNW 9 10 Clear CLR 32 12     43% 24   30.29        
Jan 19 07:55 WNW 9 10 Clear CLR 30 12     47% 22   30.29        
Jan 19 07:35 W 5 10 Clear CLR 30 12     47% 25   30.29        
Jan 19 07:15 WNW 6 10 Clear CLR 30 14     50% 24   30.29        
Jan 19 06:55 WNW 5 10 Clear CLR 30 14     50% 25   30.29        
Jan 19 06:35 WNW 7 10 Clear CLR 30 14     50% 23   30.28        
Jan 19 06:15 W 7 10 Clear CLR 30 14     50% 23   30.28        
Jan 19 05:55 WNW 9 10 Clear CLR 30 14     50% 22   30.28        
Jan 19 05:35 W 11 10 Clear CLR 30 14     50% 21   30.28        
Jan 19 05:15 W 9 10 Clear CLR 30 14     50% 22   30.28        
Jan 19 04:55 WNW 9 10 Clear CLR 30 14     50% 22   30.28        
Jan 19 04:35 WNW 8 10 Clear CLR 30 14     50% 23   30.27        
Jan 19 04:15 W 9 10 Clear CLR 30 14     50% 22   30.28        
Jan 19 03:55 WNW 9 10 Clear CLR 32 14     47% 24   30.27        
Jan 19 03:35 WNW 11 10 Clear CLR 32 14     47% 23   30.27        
Jan 19 03:15 WNW 10 10 Clear CLR 32 14     47% 24   30.27        
Jan 19 02:55 WNW 10 10 Clear CLR 32 14     47% 24   30.27        
Jan 19 02:35 WNW 9 10 Clear CLR 32 14     47% 24   30.27        
Jan 19 02:15 WNW 8 10 Clear CLR 32 14     47% 25   30.28        
Jan 19 01:55 WNW 8 10 Clear CLR 32 14     47% 25   30.28        
Jan 19 01:35 WNW 9 10 Clear CLR 32 14     47% 24   30.29        
Jan 19 01:15 WNW 10 10 Clear CLR 32 14     47% 24   30.29        
Notice The following observation data may not be complete
Jan 19 00:55   10 Clear CLR          %              
Jan 19 00:35 W 8 10 Clear CLR 32 12     43% 25   30.3        
Jan 19 00:15 WNW 7 10 Clear CLR 32 12     43% 26   30.29        
Jan 18 23:55 WNW 9 10 Clear CLR 32 12     43% 24   30.29        
Jan 18 23:35 W 9 10 Clear CLR 32 12     43% 24   30.3        
Jan 18 23:15 WNW 3 10 Clear CLR 32 12     43% 29   30.3        
Jan 18 22:55 W 6 10 Clear CLR 34 12     40% 29   30.3        
Jan 18 22:35 WNW 3 10 Clear CLR 34 14     44% 31   30.3        
Jan 18 22:15 WNW 5 10 Clear CLR 34 14     44% 29   30.3        
Jan 18 21:35 NW 7 10 Clear CLR 34 14     44% 28   30.31        
Jan 18 21:15 NW 7 10 Clear CLR 34 12     40% 28   30.32        
Jan 18 20:55 NW 6 10 Clear CLR 34 12     40% 29   30.32        
Jan 18 20:35 WNW 6 10 Clear CLR 34 12     40% 29   30.32        
Jan 18 20:15 WNW 9 10 Clear CLR 34 12     40% 26   30.32        
Jan 18 19:55 WNW 6 10 Clear CLR 32 12     43% 26   30.33        
Jan 18 19:35 WNW 5 10 Clear CLR 34 10     37% 29   30.33        
Jan 18 19:15 WNW 5 10 Clear CLR 34 12     40% 29   30.33        
Jan 18 18:55 WNW 8 10 Clear CLR 34 12     40% 27   30.33        
Jan 18 18:35 WNW 7 10 Clear CLR 34 12     40% 28   30.33        
Jan 18 18:15 WNW 6 10 Clear CLR 34 12     40% 29   30.33        
Jan 18 17:55 WNW 5 10 Clear CLR 36 12     38% 32   30.33        
Jan 18 17:35 W 9 10 Clear CLR 36 12     38% 29   30.32        
Jan 18 17:15 WNW 8 10 Clear CLR 37 14     38% 31   30.32        
Jan 18 16:55 WNW 11 10 Clear CLR 37 14     38% 30   30.33        
Jan 18 16:35 WNW 9 10 Clear CLR 37 14     38% 31   30.33        
Jan 18 15:55 W 9 10 Clear CLR 37 14     38% 31   30.33        
Jan 18 15:35 WNW 13 10 Clear CLR 37 14     38% 29   30.34        
Jan 18 15:15 W 10 10 Clear CLR 37 14     38% 30   30.34        
Jan 18 14:55 WNW 9 10 Clear CLR 39 14     35% 33   30.35        
Jan 18 14:35 WNW 10 10 Clear CLR 37 14     38% 30   30.34        
Jan 18 14:15 WNW 10 10 Clear CLR 37 14     38% 30   30.34        
Jan 18 13:55 WNW 8 10 Clear CLR 37 14     38% 31   30.35        
Jan 18 13:35 W 7 10 Clear CLR 36 16     44% 30   30.35        
Notice The following observation data may not be complete
Jan 18 13:15   10 Clear CLR          %              
Jan 18 12:55 W 9 10 Clear CLR 36 16     44% 29   30.39        
Jan 18 12:35 WNW 8 10 Clear CLR 34 16     47% 27   30.39        
Jan 18 12:15 WNW 8 10 Clear CLR 32 16     51% 25   30.4        
Jan 18 11:55 W 8 10 Clear CLR 32 14     47% 25   30.41        
Jan 18 11:35 WNW 7 10 Clear CLR 32 12     43% 26   30.42        
Jan 18 11:15 WNW 8 10 Clear CLR 32 12     43% 25   30.42        
Jan 18 10:55 NW 7 10 Clear CLR 32 12     43% 26   30.42        
Jan 18 10:35 NW 9 10 Clear CLR 28 12     50% 20   30.42        
Jun 12 08:55 Calm 10 Cloudy BKN008 OVC012 72 66     83%   72 30.25        
Jun 12 02:35 Calm 10 Clear CLR 73 64     73%   74 30.21        
Jun 11 23:35 E 3 10 Mostly Cloudy SCT029 BKN049 77 63     61%   77 30.21        
Jun 11 22:55 ESE 3 10 Partly Cloudy SCT049 77        %     30.21        
Jun 11 19:55 Calm 10 Partly Cloudy SCT055 82        %     30.17        
Jun 11 16:15 E 8 10 Partly Cloudy SCT038 88        %     30.2        
Jun 11 15:15 E 6 10 Mostly Cloudy SCT037 SCT042 BKN055 86        %     30.22        
Jun 11 07:35 Calm 10 Partly Cloudy SCT008 64 61     88%     30.21        
Jun 10 23:15 Calm 10 Clear CLR 73        %     30.18        
Jun 10 22:35 Calm 10 Clear CLR 75        %     30.16        
Jun 10 19:55 Calm 10 Mostly Cloudy BKN060 BKN075 82        %     30.11        
Jun 10 19:35 Calm 10 Partly Cloudy SCT060 81        %     30.1        
Jun 10 16:15 ENE 5 10 Partly Cloudy SCT055 SCT080 86        %     30.12        
Jun 10 11:35 Calm 10 Partly Cloudy SCT070 79        %     30.15        
Jun 10 11:15 Calm 10 Partly Cloudy SCT060 SCT070 77        %     30.16        
Jun 10 10:55 Calm 10 Mostly Cloudy SCT050 BKN070 77        %     30.16        
Jun 10 05:55 Calm 5 Fog/Mist CLR 59 55     88%     30.07        
Jun 10 05:15 Calm 5 Fog/Mist CLR 59 55     88%     30.06        
Jun 09 18:15 WNW 7 10 Clear CLR 81 46     30%   80 29.97        
Notice The following observation data may not be complete
Jun 09 15:35   10 Partly Cloudy SCT070          %              
Notice The following observation data may not be complete
Jun 09 15:15   10 Clear CLR          %              
Jun 09 14:55 WNW 3 10 Clear CLR 81        %     30        
Jun 09 09:55 Calm 10 Clear CLR 70 55     60%     30.02        
Jun 09 06:15 Calm 5 Fog/Mist CLR 59 55     88%     29.97        
Jun 08 23:35 Calm 10 Clear CLR 66 59     78%     29.93        
Jun 08 13:35 SSW 3 10 Partly Cloudy SCT036 SCT060 SCT085 75 48     38%   74 29.95        
Jun 08 12:35 ENE 3 10 Partly Cloudy SCT031 SCT041 SCT050 73        %     29.96        
Jun 08 10:15 ENE 7 10 Partly Cloudy SCT016 SCT100 70 54     56%     29.97        
Jun 08 09:35 ENE 5 10 Partly Cloudy SCT012 68 54     60%     29.97        
Jun 07 23:35 Calm 10 Light Drizzle SCT037 SCT042 OVC050 66 59     78%     29.91        
Jun 07 22:55 Calm 10 Cloudy BKN036 BKN055 OVC070 68 55     64%     29.91        
Jun 07 19:55 E 5 10 Mostly Cloudy SCT050 BKN075 77 52     41%   76 29.86        
Jun 07 16:15 Calm 10 Mostly Cloudy SCT060 BKN090 77 52     41%   76 29.85        
Jun 07 13:35 E 3 10 Clear CLR 79        %     29.86        
Notice The following observation data may not be complete
Jun 07 09:35   10 Mostly Cloudy BKN060 BKN070          %              
Jun 06 15:15 WNW 3 10 Clear CLR 79 61     54%   79 29.8        
Jun 06 06:35 Calm 1.25 Fog/Mist BKN009 70 66     88%     29.84        
Jun 06 05:55 Calm 1.5 Light Rain SCT005 BKN120 70 68     94%     29.84        
Notice The following observation data may not be complete
Jun 06 04:35   5 Fog/Mist OVC003          %              
Notice The following observation data may not be complete
Jun 06 03:35   7 Partly Cloudy SCT003 SCT080 SCT120          %              
Jun 06 01:35 Calm 7 Partly Cloudy SCT120 70 68     94%     29.86        
Jun 05 22:55 W 3 10 Clear   72 68     88%   73 29.87